SCP
0 0 0 -0 -0 -0 -0 -0 -0 0 -0 -0 0 -0 -0 -0 -0 -0 -0 -0 -0 -0 -0 -0 -0 -0 -0 -0 -0 -0 -0 -0 -0 -0 -0 -0 -0 -0 -0 -0 -0 -0 -0
0 0 0 0 0 0 -0 -0 0 -0 -0 0 -0 -0 -0 -0 -0 -0 -0 -0 -0 -0 -0 -0 -0 -0 -0 -0 -0 -0 -0 -0 0 0 -0 -0 -0 -0 -0 -0 -0 -0 -0
0 0 0 0 0 0 0 0 0 0 0 0 0 -0 -0 0 0 -0 -0 -0 -0 -0 -0 -0 -0 -0 -0 -0 -0 -0 -0 0 0 -0 0 0 -0 -0 -0 -0 -0 -0 -0
-0 -0 0 -0 0 -0 -0 0 0 0 0 -0 -0 -0 -0 0 0 -0 -0 0 -0 -0 -0 -0 -0 -0 -0 -0 -0 0 0 0 0 0 0 0 -0 -0 -0 -0 -0 -0 -0
-0 -0 -0 -0 0 0 -0 -0 0 -0 0 -0 0 0 0 0 -0 -0 -0 -0 -0 -0 -0 -0 -0 -0 0 0 0 0 0 0 0 -0 0 0 0 -0 -0 -0 -0 -0 -0
0 -0 -0 -0 0 0 -0 -0 -0 -0 -0 0 0 0 0 0 -0 -0 -0 -0 -0 -0 -0 -0 -0 0 0 0 0 0 0 0 0 0 0 0 0 0 -0 0 0 0 0
-0 -0 0 -0 0 0 0 0 -0 -0 0 0 -0 -0 -0 0 -0 -0 -0 -0 -0 -0 -0 -0 -0 -0 -0 0 0 0 0 0 0 0 0 0 0 0 0 0 0 0 0
-0 -0 -0 -0 0 0 -0 0 -0 -0 -0 -0 -0 -0 -0 -0 -0 -0 -0 -0 -0 -0 -0 -0 -0 -0 -0 -0 0 0 -0 0 0 0 0 0 0 0 0 0 0 0 0
-0 -0 -0 -0 -0 -0 -0 -0 -0 -0 -0 -0 -0 -0 -0 -0 -0 -0 -0 -0 -0 -0 -0 -0 -0 -0 0 0 0 0 0 0 0 0 0 0 0 0 0 0 0 0 0
-0 -0 -0 -0 -0 -0 -0 -0 -0 -0 -0 -0 -0 -0 -0 -0 -0 -0 -0 -0 -0 -0 -0 -0 -0 0 0 0 0 0 0 0 0 0 0 0 0 0 0 0 0 0 0
-0 -0 -0 -0 -0 -0 -0 -0 -0 -0 -0 -0 -0 -0 -0 -0 -0 -0 -0 -0 -0 -0 -0 -0 0 0 0 0 0 0 0 0 0 0 0 0 0 0 0 0 0 0 0
-0 -0 -0 -0 -0 -0 -0 -0 -0 -0 -0 -0 -0 -0 -0 -0 -0 -0 -0 -0 -0 0 0 0 0 0 0 0 0 0 0 0 0 0 0 0 0 0 0 0 0 0 0
-0 0 -0 0 -0 -0 -0 0 0 0 0 0 -0 -0 -0 -0 -0 -0 -0 -0 -0 0 0 0 0 0 0 0 0 0 0 0 0 0 0 0 0 0 0 0 0 0 0
-0 -0 -0 -0 0 -0 0 0 0 0 0 0 -0 -0 -0 -0 -0 -0 0 0 0 0 0 0 0 0 0 0 0 0 0 0 0 0 0 0 0 0 0 0 0 0 0
0 0 -0 -0 -0 0 0 0 0 0 0 0 -0 -0 -0 0 0 0 0 0 0 0 0 0 0 0 0 0 0 0 0 0 0 0 0 0 0 0 0 0 0 0 0
0 0 0 0 -0 0 -0 0 0 0 0 0 0 0 0 0 0 0 0 0 0 0 0 0 0 0 0 0 0 0 0 0 0 0 0 0 0 0 0 0 0 0 0
0 0 0 0 0 0 0 0 0 0 0 0 0 0 0 0 0 0 0 0 0 0 0 0 0 0 0 0 0 0 0 0 0 0 0 0 0 0 0 0 0 0 0
0 0 0 0 0 0 0 0 0 0 0 0 0 0 0 0 0 0 0 0 0 0 0 0 0 0 0 0 0 0 0 0 0 0 0 0 0 0 0 0 0 0 0
0 0 0 0 0 0 0 0 0 0 0 0 0 0 0 0 0 0 0 0 0 0 0 0 0 0 0 0 0 0 0 0 0 0 0 0 0 0 0 0 0 0 0
0 0 0 0 0 0 0 0 0 0 0 0 0 0 0 0 0 0 0 0 0 0 0 0 0 0 0 0 0 0 0 0 0 0 0 0 0 0 0 0 0 0 0
0 0 0 0 0 0 0 0 0 0 0 0 0 0 0 0 0 0 0 0 0 0 0 0 0 0 0 0 0 0 0 0 0 0 0 0 0 0 0 0 0 0 0
0 0 0 0 0 0 0 0 0 0 0 0 0 0 0 0 0 0 0 0 0 0 0 0 0 0 0 0 0 0 0 0 0 0 0 0 0 0 0 0 0 0 0
0 0 0 0 0 0 0 0 0 0 0 0 0 0 0 0 0 0 0 0 0 0 0 0 0 0 0 0 0 0 0 0 0 0 0 0 0 0 0 0 0 0 0
0 0 0 0 0 0 0 0 0 0 0 0 0 0 0 0 0 0 0 0 0 0 0 0 0 0 0 0 0 0 0 0 0 0 0 0 0 0 0 0 0 0 0
0 0 0 0 0 0 0 0 0 0 0 0 0 0 0 0 0 0 0 0 0 0 0 0 0 0 0 0 0 0 0 0 0 0 0 0 0 0 0 0 0 0 0
0 0 0 0 0 0 0 0 0 0 0 0 0 0 0 0 0 0 0 0 0 0 0 0 0 0 0 0 0 0 0 0 0 0 0 0 0 0 0 0 0 0 0
Wind_Speed_500mb
15 12 15 15 21 21 20 24 24 22 21 21 22 22 25 27 28 28 28 25 24 25 26 27 24 23 22 22 22 23 24 27 32 38 29 33 29 24 24 25 31 31 28
19 16 19 22 25 18 19 23 25 28 25 25 24 22 20 25 27 25 23 17 19 23 23 21 23 24 25 25 29 33 34 37 47 47 40 35 31 31 35 36 33 31 32
22 18 22 26 21 18 20 19 25 24 24 24 20 17 19 21 20 19 21 23 23 22 24 26 27 28 29 33 35 36 39 40 48 37 39 36 29 35 37 35 29 31 35
25 20 21 26 20 17 21 22 21 19 18 21 18 19 15 16 17 18 23 22 23 24 27 29 29 29 31 33 34 35 39 46 50 34 32 39 36 37 34 29 28 31 37
26 23 22 24 21 19 19 20 20 21 24 23 19 17 12 19 20 23 27 24 18 27 28 28 29 29 29 30 32 33 37 49 43 26 33 38 32 32 27 25 26 33 28
28 23 24 22 20 18 18 21 21 20 17 20 18 15 21 26 22 20 29 21 18 26 26 26 28 29 29 29 31 33 35 47 34 30 34 33 31 23 22 25 24 22 20
29 26 24 22 20 18 19 21 23 23 21 20 19 19 22 22 24 32 27 21 20 23 22 26 27 28 29 29 30 32 38 42 27 30 31 30 28 22 25 28 26 24 22
30 28 25 23 20 20 19 21 24 23 24 24 25 23 24 25 25 26 22 24 23 22 23 25 25 26 27 27 28 29 34 38 27 28 27 28 31 28 30 30 30 28 28
30 29 27 24 23 21 20 19 21 21 22 23 22 20 21 19 21 21 22 22 22 21 22 23 24 24 25 26 25 27 28 33 27 26 23 24 28 26 27 29 29 29 27
31 30 28 26 23 23 22 19 19 20 18 18 16 17 18 16 16 17 18 19 19 20 21 22 22 22 23 24 23 24 24 31 25 18 20 26 26 26 27 28 28 28 28
32 32 29 29 25 24 23 21 18 18 16 15 14 14 16 13 13 11 14 15 15 17 18 19 19 19 20 22 21 19 23 19 18 14 19 22 22 22 21 23 24 24 25
36 39 37 29 27 25 23 22 19 18 15 14 13 13 17 14 9 9 10 11 11 12 14 15 15 14 17 13 13 15 15 16 14 13 15 17 18 18 18 19 20 21 21
40 43 43 40 29 28 23 25 21 20 18 16 13 12 14 12 10 7 8 8 7 7 9 10 12 11 10 9 9 10 11 12 10 9 12 13 14 15 17 18 17 20 21
42 42 46 42 38 34 28 27 22 21 19 16 14 12 14 12 11 9 6 5 4 4 5 5 7 8 7 6 6 5 6 6 5 5 7 10 12 14 17 19 22 25 26
43 42 48 45 43 39 34 27 22 24 22 20 17 16 14 14 13 11 8 6 5 4 3 2 1 5 5 5 4 4 3 3 4 6 9 10 13 16 19 21 22 23 23
45 44 46 49 41 43 40 35 29 23 26 25 23 21 19 17 15 13 11 10 8 7 6 5 4 4 5 4 4 4 4 6 7 7 10 15 15 20 24 26 26 26 26
47 42 45 50 45 43 41 36 34 31 29 29 29 26 23 22 20 18 17 15 13 10 9 9 8 7 8 8 8 8 9 10 12 13 15 18 22 25 26 27 26 26 27
55 47 53 50 50 45 43 41 37 35 34 33 31 32 31 28 26 23 22 21 18 15 13 11 10 10 9 10 10 12 14 15 18 19 20 21 24 25 24 22 26 26 23
53 54 54 53 52 49 45 44 40 41 39 35 36 37 36 34 32 29 28 24 23 18 13 14 18 16 13 11 14 19 19 21 21 23 21 22 20 20 25 27 27 27 25
49 50 50 54 54 51 47 46 43 44 43 38 37 40 40 39 38 34 31 28 22 18 17 18 15 22 19 19 23 20 21 22 22 23 21 17 12 25 27 27 29 28 25
50 52 50 52 54 54 57 55 53 49 42 44 41 41 41 40 40 35 29 27 27 24 21 20 18 14 14 17 23 24 17 21 22 21 17 13 23 23 25 32 28 25 29
57 59 57 57 58 62 61 59 57 50 46 45 41 39 39 46 39 35 35 33 33 30 29 28 26 22 21 22 24 26 15 16 23 11 15 18 27 25 30 29 28 29 29
65 67 67 66 63 63 63 58 57 47 50 49 48 46 46 42 44 43 41 39 38 35 35 34 34 35 34 31 33 24 15 15 15 25 22 22 21 25 25 25 24 24 28
68 66 67 66 65 64 63 66 64 63 62 59 55 54 49 47 43 45 48 47 46 43 43 41 42 43 44 44 44 36 38 42 20 15 19 24 28 23 25 23 23 26 31
65 71 72 69 68 72 72 70 68 66 63 57 52 50 47 47 47 46 47 54 52 48 45 44 42 43 48 48 47 43 37 35 40 37 33 25 23 28 27 25 27 33 35
63 71 72 74 73 73 75 72 73 72 65 58 58 53 54 48 45 48 40 38 41 40 41 38 43 44 45 46 39 34 34 34 30 35 35 30 28 29 23 27 37 32 28
Wind_Direction_500mb
136 133 98 105 106 100 92 117 104 100 97 93 86 90 94 97 95 88 83 78 78 83 81 78 74 67 59 53 48 50 54 57 61 57 55 62 60 62 60 55 60 51 44
149 127 108 110 109 114 98 122 117 103 99 100 97 92 98 99 93 86 73 72 76 78 78 75 63 57 56 61 67 66 65 68 72 65 59 69 62 60 65 74 67 58 44
135 125 116 118 112 116 100 117 144 132 127 118 120 111 108 102 97 92 82 73 80 83 73 71 66 62 65 70 73 72 71 74 78 79 68 54 52 57 70 79 72 56 47
134 129 126 127 119 115 104 112 132 157 150 139 134 121 105 101 93 102 110 85 78 80 77 72 70 68 73 74 73 70 70 76 73 52 71 68 60 67 74 77 68 54 66
136 138 135 134 130 116 100 109 117 115 115 114 117 111 104 96 100 100 104 96 90 81 74 74 69 68 70 70 72 73 79 76 70 75 70 70 69 65 67 69 67 63 80
141 146 139 141 130 116 100 104 107 113 115 115 108 110 117 112 103 106 113 104 93 82 74 72 67 66 67 72 74 76 77 73 74 70 72 70 77 66 56 55 57 59 71
144 150 145 143 140 128 110 110 107 109 108 111 110 106 105 110 94 111 109 108 93 86 79 70 68 69 71 73 75 82 84 83 79 79 68 68 78 59 59 60 62 60 61
153 154 151 149 145 136 121 115 112 108 103 106 103 103 100 97 100 103 100 106 92 82 73 68 69 69 72 72 76 83 85 87 68 66 61 67 66 62 60 57 56 56 56
161 160 159 156 151 145 136 127 122 117 113 110 115 120 110 109 104 99 98 94 91 82 73 68 67 68 69 68 75 79 80 84 69 75 70 66 62 67 58 54 53 52 51
165 165 163 164 159 154 153 149 128 128 127 125 122 102 110 107 98 97 99 92 85 77 70 68 71 72 73 69 78 83 83 73 76 68 78 69 66 64 57 56 52 48 46
170 178 169 169 168 167 166 160 153 146 140 138 134 128 109 99 108 106 103 100 90 80 71 66 67 71 77 70 71 75 75 80 82 81 74 69 63 58 52 45 43 41 37
180 184 183 172 176 174 174 167 167 165 161 157 147 137 140 146 148 115 117 108 100 88 79 74 69 72 66 67 69 70 77 77 81 75 65 60 53 45 39 35 32 30 28
187 193 191 179 184 179 186 178 180 181 182 176 170 159 160 157 154 126 124 124 116 105 83 74 69 73 73 76 77 85 83 80 74 60 49 42 36 29 24 19 13 9 9
194 202 197 196 196 193 196 190 194 194 194 193 188 183 176 172 164 170 156 152 150 146 131 99 75 68 69 63 63 72 78 84 79 46 27 13 9 6 2 357 352 353 355
198 198 206 202 205 205 203 203 199 205 205 206 206 203 197 192 188 189 193 206 217 218 199 180 14 27 39 29 22 14 6 1 1 348 339 352 346 343 341 339 336 332 331
202 202 209 204 209 210 214 217 207 210 213 217 217 215 211 209 214 212 215 219 226 234 241 247 270 304 323 340 331 322 312 312 323 324 327 324 329 327 324 323 324 327 324
202 205 207 210 207 215 213 224 222 220 222 223 225 226 226 228 230 233 233 233 239 239 245 252 263 277 294 301 302 300 298 304 308 310 310 313 314 316 317 318 321 324 324
208 207 210 213 212 219 215 225 226 227 229 229 232 235 232 232 235 238 241 238 242 246 249 258 266 275 277 282 289 299 301 301 299 305 312 312 311 311 316 317 320 322 318
211 210 215 214 216 220 221 226 226 232 230 233 232 236 238 237 238 241 247 240 241 245 266 283 284 270 264 277 296 301 293 295 298 306 305 304 306 308 312 312 314 313 313
208 209 214 214 217 220 223 225 226 230 229 227 233 238 239 237 241 244 242 237 243 251 259 265 276 276 269 277 286 294 292 291 294 299 294 299 302 309 306 311 319 314 310
206 206 207 207 214 215 218 222 224 228 228 232 233 235 239 238 245 240 230 233 246 252 258 256 269 291 278 277 282 290 300 292 294 291 283 299 313 307 306 315 316 317 313
208 210 208 211 215 218 224 228 231 235 237 242 245 240 240 244 241 235 240 241 244 250 255 261 267 272 271 275 273 271 293 278 287 274 254 306 317 306 309 313 307 308 312
214 215 217 218 217 220 224 228 232 233 237 236 236 241 238 240 238 241 244 247 250 253 257 263 265 259 264 267 264 256 268 256 239 279 275 288 307 304 305 308 309 313 315
222 222 223 219 222 225 226 227 234 235 236 240 241 245 247 242 246 247 243 243 250 253 256 258 259 262 261 258 266 269 272 263 250 267 274 292 302 298 303 305 306 311 315
226 229 228 228 227 230 233 234 236 239 242 247 246 247 243 245 244 252 250 245 246 248 253 258 262 260 263 266 269 270 269 274 270 257 271 280 285 292 298 296 312 314 315
232 233 234 234 234 234 235 237 235 240 240 238 239 241 243 245 246 243 247 243 244 250 257 262 263 265 267 269 271 272 274 273 261 257 263 259 261 274 286 298 305 303 309
Wind_Speed_850mb
15 12 15 15 21 21 20 24 24 22 21 21 22 22 25 27 28 28 28 25 24 25 26 27 24 23 22 22 22 23 24 27 32 38 29 33 29 24 24 25 31 31 28
19 16 19 22 25 18 19 23 25 28 25 25 24 22 20 25 27 25 23 17 19 23 23 21 23 24 25 25 29 33 34 37 47 47 40 35 31 31 35 36 33 31 32
22 18 22 26 21 18 20 19 25 24 24 24 20 17 19 21 20 19 21 23 23 22 24 26 27 28 29 33 35 36 39 40 48 37 39 36 29 35 37 35 29 31 35
25 20 21 26 20 17 21 22 21 19 18 21 18 19 15 16 17 18 23 22 23 24 27 29 29 29 31 33 34 35 39 46 50 34 32 39 36 37 34 29 28 31 37
26 23 22 24 21 19 19 20 20 21 24 23 19 17 12 19 20 23 27 24 18 27 28 28 29 29 29 30 32 33 37 49 43 26 33 38 32 32 27 25 26 33 28
28 23 24 22 20 18 18 21 21 20 17 20 18 15 21 26 22 20 29 21 18 26 26 26 28 29 29 29 31 33 35 47 34 30 34 33 31 23 22 25 24 22 20
29 26 24 22 20 18 19 21 23 23 21 20 19 19 22 22 24 32 27 21 20 23 22 26 27 28 29 29 30 32 38 42 27 30 31 30 28 22 25 28 26 24 22
30 28 25 23 20 20 19 21 24 23 24 24 25 23 24 25 25 26 22 24 23 22 23 25 25 26 27 27 28 29 34 38 27 28 27 28 31 28 30 30 30 28 28
30 29 27 24 23 21 20 19 21 21 22 23 22 20 21 19 21 21 22 22 22 21 22 23 24 24 25 26 25 27 28 33 27 26 23 24 28 26 27 29 29 29 27
31 30 28 26 23 23 22 19 19 20 18 18 16 17 18 16 16 17 18 19 19 20 21 22 22 22 23 24 23 24 24 31 25 18 20 26 26 26 27 28 28 28 28
32 32 29 29 25 24 23 21 18 18 16 15 14 14 16 13 13 11 14 15 15 17 18 19 19 19 20 22 21 19 23 19 18 14 19 22 22 22 21 23 24 24 25
36 39 37 29 27 25 23 22 19 18 15 14 13 13 17 14 9 9 10 11 11 12 14 15 15 14 17 13 13 15 15 16 14 13 15 17 18 18 18 19 20 21 21
40 43 43 40 29 28 23 25 21 20 18 16 13 12 14 12 10 7 8 8 7 7 9 10 12 11 10 9 9 10 11 12 10 9 12 13 14 15 17 18 17 20 21
42 42 46 42 38 34 28 27 22 21 19 16 14 12 14 12 11 9 6 5 4 4 5 5 7 8 7 6 6 5 6 6 5 5 7 10 12 14 17 19 22 25 26
43 42 48 45 43 39 34 27 22 24 22 20 17 16 14 14 13 11 8 6 5 4 3 2 1 5 5 5 4 4 3 3 4 6 9 10 13 16 19 21 22 23 23
45 44 46 49 41 43 40 35 29 23 26 25 23 21 19 17 15 13 11 10 8 7 6 5 4 4 5 4 4 4 4 6 7 7 10 15 15 20 24 26 26 26 26
47 42 45 50 45 43 41 36 34 31 29 29 29 26 23 22 20 18 17 15 13 10 9 9 8 7 8 8 8 8 9 10 12 13 15 18 22 25 26 27 26 26 27
55 47 53 50 50 45 43 41 37 35 34 33 31 32 31 28 26 23 22 21 18 15 13 11 10 10 9 10 10 12 14 15 18 19 20 21 24 25 24 22 26 26 23
53 54 54 53 52 49 45 44 40 41 39 35 36 37 36 34 32 29 28 24 23 18 13 14 18 16 13 11 14 19 19 21 21 23 21 22 20 20 25 27 27 27 25
49 50 50 54 54 51 47 46 43 44 43 38 37 40 40 39 38 34 31 28 22 18 17 18 15 22 19 19 23 20 21 22 22 23 21 17 12 25 27 27 29 28 25
50 52 50 52 54 54 57 55 53 49 42 44 41 41 41 40 40 35 29 27 27 24 21 20 18 14 14 17 23 24 17 21 22 21 17 13 23 23 25 32 28 25 29
57 59 57 57 58 62 61 59 57 50 46 45 41 39 39 46 39 35 35 33 33 30 29 28 26 22 21 22 24 26 15 16 23 11 15 18 27 25 30 29 28 29 29
65 67 67 66 63 63 63 58 57 47 50 49 48 46 46 42 44 43 41 39 38 35 35 34 34 35 34 31 33 24 15 15 15 25 22 22 21 25 25 25 24 24 28
68 66 67 66 65 64 63 66 64 63 62 59 55 54 49 47 43 45 48 47 46 43 43 41 42 43 44 44 44 36 38 42 20 15 19 24 28 23 25 23 23 26 31
65 71 72 69 68 72 72 70 68 66 63 57 52 50 47 47 47 46 47 54 52 48 45 44 42 43 48 48 47 43 37 35 40 37 33 25 23 28 27 25 27 33 35
63 71 72 74 73 73 75 72 73 72 65 58 58 53 54 48 45 48 40 38 41 40 41 38 43 44 45 46 39 34 34 34 30 35 35 30 28 29 23 27 37 32 28
Wind_Direction_850mb
136 133 98 105 106 100 92 117 104 100 97 93 86 90 94 97 95 88 83 78 78 83 81 78 74 67 59 53 48 50 54 57 61 57 55 62 60 62 60 55 60 51 44
149 127 108 110 109 114 98 122 117 103 99 100 97 92 98 99 93 86 73 72 76 78 78 75 63 57 56 61 67 66 65 68 72 65 59 69 62 60 65 74 67 58 44
135 125 116 118 112 116 100 117 144 132 127 118 120 111 108 102 97 92 82 73 80 83 73 71 66 62 65 70 73 72 71 74 78 79 68 54 52 57 70 79 72 56 47
134 129 126 127 119 115 104 112 132 157 150 139 134 121 105 101 93 102 110 85 78 80 77 72 70 68 73 74 73 70 70 76 73 52 71 68 60 67 74 77 68 54 66
136 138 135 134 130 116 100 109 117 115 115 114 117 111 104 96 100 100 104 96 90 81 74 74 69 68 70 70 72 73 79 76 70 75 70 70 69 65 67 69 67 63 80
141 146 139 141 130 116 100 104 107 113 115 115 108 110 117 112 103 106 113 104 93 82 74 72 67 66 67 72 74 76 77 73 74 70 72 70 77 66 56 55 57 59 71
144 150 145 143 140 128 110 110 107 109 108 111 110 106 105 110 94 111 109 108 93 86 79 70 68 69 71 73 75 82 84 83 79 79 68 68 78 59 59 60 62 60 61
153 154 151 149 145 136 121 115 112 108 103 106 103 103 100 97 100 103 100 106 92 82 73 68 69 69 72 72 76 83 85 87 68 66 61 67 66 62 60 57 56 56 56
161 160 159 156 151 145 136 127 122 117 113 110 115 120 110 109 104 99 98 94 91 82 73 68 67 68 69 68 75 79 80 84 69 75 70 66 62 67 58 54 53 52 51
165 165 163 164 159 154 153 149 128 128 127 125 122 102 110 107 98 97 99 92 85 77 70 68 71 72 73 69 78 83 83 73 76 68 78 69 66 64 57 56 52 48 46
170 178 169 169 168 167 166 160 153 146 140 138 134 128 109 99 108 106 103 100 90 80 71 66 67 71 77 70 71 75 75 80 82 81 74 69 63 58 52 45 43 41 37
180 184 183 172 176 174 174 167 167 165 161 157 147 137 140 146 148 115 117 108 100 88 79 74 69 72 66 67 69 70 77 77 81 75 65 60 53 45 39 35 32 30 28
187 193 191 179 184 179 186 178 180 181 182 176 170 159 160 157 154 126 124 124 116 105 83 74 69 73 73 76 77 85 83 80 74 60 49 42 36 29 24 19 13 9 9
194 202 197 196 196 193 196 190 194 194 194 193 188 183 176 172 164 170 156 152 150 146 131 99 75 68 69 63 63 72 78 84 79 46 27 13 9 6 2 357 352 353 355
198 198 206 202 205 205 203 203 199 205 205 206 206 203 197 192 188 189 193 206 217 218 199 180 14 27 39 29 22 14 6 1 1 348 339 352 346 343 341 339 336 332 331
202 202 209 204 209 210 214 217 207 210 213 217 217 215 211 209 214 212 215 219 226 234 241 247 270 304 323 340 331 322 312 312 323 324 327 324 329 327 324 323 324 327 324
202 205 207 210 207 215 213 224 222 220 222 223 225 226 226 228 230 233 233 233 239 239 245 252 263 277 294 301 302 300 298 304 308 310 310 313 314 316 317 318 321 324 324
208 207 210 213 212 219 215 225 226 227 229 229 232 235 232 232 235 238 241 238 242 246 249 258 266 275 277 282 289 299 301 301 299 305 312 312 311 311 316 317 320 322 318
211 210 215 214 216 220 221 226 226 232 230 233 232 236 238 237 238 241 247 240 241 245 266 283 284 270 264 277 296 301 293 295 298 306 305 304 306 308 312 312 314 313 313
208 209 214 214 217 220 223 225 226 230 229 227 233 238 239 237 241 244 242 237 243 251 259 265 276 276 269 277 286 294 292 291 294 299 294 299 302 309 306 311 319 314 310
206 206 207 207 214 215 218 222 224 228 228 232 233 235 239 238 245 240 230 233 246 252 258 256 269 291 278 277 282 290 300 292 294 291 283 299 313 307 306 315 316 317 313
208 210 208 211 215 218 224 228 231 235 237 242 245 240 240 244 241 235 240 241 244 250 255 261 267 272 271 275 273 271 293 278 287 274 254 306 317 306 309 313 307 308 312
214 215 217 218 217 220 224 228 232 233 237 236 236 241 238 240 238 241 244 247 250 253 257 263 265 259 264 267 264 256 268 256 239 279 275 288 307 304 305 308 309 313 315
222 222 223 219 222 225 226 227 234 235 236 240 241 245 247 242 246 247 243 243 250 253 256 258 259 262 261 258 266 269 272 263 250 267 274 292 302 298 303 305 306 311 315
226 229 228 228 227 230 233 234 236 239 242 247 246 247 243 245 244 252 250 245 246 248 253 258 262 260 263 266 269 270 269 274 270 257 271 280 285 292 298 296 312 314 315
232 233 234 234 234 234 235 237 235 240 240 238 239 241 243 245 246 243 247 243 244 250 257 262 263 265 267 269 271 272 274 273 261 257 263 259 261 274 286 298 305 303 309